Location: Mountain Grove
(34.0887°N, 86.6172°W)
Time: 00:05:01
(UTC+00:00)

CARTOSAT-1 - Pass Details

Date: 14 July 2020
Orbit: 617 x 618 km, 97.8° (Epoch: 12 August)

Event Time Altitude Azimuth Distance (km) Brightness Sun altitude
Exits shadow 03:38:12 71° 316° (NW) 655 3.7 -25.8°
Drops below altitude 10° 03:42:08 10° 346° (NNW) 1,986 7.0 -26.3°
Sets 03:44:20 0° 347° (NNW) 2,895 8.1 -26.5°
